Location: Moscow
(55.7500°N, 37.5830°E)
Time: 10:43:37
(UTC+03:00)

Explorer 7 - Pass Details

Date: 03 December 2021
Orbit: 483 x 674 km, 50.3° (Epoch: 19 January)

Event Time Altitude Azimuth Distance (km) Brightness Sun altitude
Rises 11:33:24 0° 272° (W) 2,646 10.2 11.5°
Reaches altitude 10° 11:36:04 10° 255° (WSW) 1,725 9.5 11.6°
Maximum altitude 11:38:55 20° 208° (SSW) 1,215 9.6 11.6°
Drops below altitude 10° 11:41:41 10° 160° (SSE) 1,675 11.6 11.7°
Sets 11:44:14 0° 143° (SE) 2,542 11.4 11.7°
